EDT,Max TemperatureF,Mean TemperatureF,Min TemperatureF,Max Dew PointF,MeanDew PointF,Min DewpointF,Max Humidity, Mean Humidity, Min Humidity, Max Sea Level PressureIn, Mean Sea Level PressureIn, Min Sea Level PressureIn, Max VisibilityMiles, Mean VisibilityMiles, Min VisibilityMiles, Max Wind SpeedMPH, Mean Wind SpeedMPH, Max Gust SpeedMPH,PrecipitationIn, CloudCover, Events, WindDirDegrees
2013-8-1,93,84,74,75,72,68,94,81,47,30.06,29.99,29.93,10,9,2,22,3,31,0.21,2,Rain-Thunderstorm,34
2013-8-2,92,82,72,76,73,71,100,82,56,30.06,30.01,29.95,10,8,0,21,4,29,0.78,2,Rain-Thunderstorm,231
2013-8-3,89,82,75,77,75,73,100,86,63,30.12,30.08,30.03,10,9,2,15,3,18,0.31,3,Rain-Thunderstorm,142
2013-8-4,91,83,75,78,75,73,100,79,59,30.11,30.06,30.02,10,10,9,16,6,22,0.00,1,,259
2013-8-5,91,85,78,77,76,74,91,78,63,30.05,30.01,29.96,10,10,10,15,4,18,0.26,2,Rain,276
2013-8-6,91,83,74,77,74,70,100,81,56,29.99,29.95,29.91,10,10,9,18,3,23,0.00,2,Thunderstorm,11
2013-8-7,91,83,75,76,75,74,100,88,59,29.97,29.94,29.91,10,8,1,17,3,22,0.60,3,Rain-Thunderstorm,118
2013-8-8,92,83,73,76,74,70,100,85,52,30.02,29.96,29.93,10,8,0,23,5,30,1.02,3,Rain-Thunderstorm,61
2013-8-9,90,81,72,75,73,70,100,90,56,30.06,30.02,29.96,10,9,2,21,6,31,0.41,3,Rain-Thunderstorm,85
2013-8-10,93,82,71,76,73,70,100,76,49,30.12,30.07,30.02,10,10,10,14,8,21,0.00,2,,117
2013-8-11,94,85,75,75,73,70,100,72,49,30.14,30.10,30.04,10,10,8,13,7,17,0.00,1,,105
2013-8-12,93,84,74,75,71,64,100,70,41,30.13,30.07,30.01,10,10,10,15,6,23,0.00,0,,78
2013-8-13,93,84,74,79,74,71,100,82,52,30.06,30.01,29.95,10,8,2,20,5,28,0.78,3,Rain-Thunderstorm,49
2013-8-14,91,81,71,75,73,70,100,74,52,30.02,29.98,29.93,10,10,10,12,5,21,T,1,,185
2013-8-15,85,81,77,77,74,71,94,83,69,30.07,30.01,29.98,10,10,10,9,4,,T,2,Thunderstorm,172
2013-8-16,94,86,77,77,74,66,97,75,49,30.05,30.01,29.96,10,10,10,21,4,29,T,1,Rain-Thunderstorm,130
2013-8-17,94,85,75,78,75,70,97,81,49,30.08,30.03,29.98,10,9,1,35,5,46,0.28,2,Rain,104
2013-8-18,92,84,76,76,74,72,94,84,56,30.10,30.05,29.99,10,9,2,16,7,21,0.14,4,Rain-Thunderstorm,104
2013-8-19,90,82,74,76,74,70,100,85,56,30.08,30.01,29.96,10,9,0,14,6,18,0.52,2,Fog-Rain-Thunderstorm,90
2013-8-20,90,82,73,76,73,72,100,82,59,30.07,30.02,29.99,10,10,10,15,6,20,T,1,Thunderstorm,74
2013-8-21,91,84,77,77,75,73,97,82,59,30.08,30.04,29.98,10,10,8,20,8,24,0.03,1,Rain,79
2013-8-22,94,84,73,77,74,72,100,87,49,30.06,30.01,29.95,10,7,0,23,6,29,1.37,5,Fog-Rain-Thunderstorm,74
2013-8-23,91,83,75,77,74,72,100,81,59,30.02,29.98,29.94,10,10,7,13,5,18,T,2,Thunderstorm,98
2013-8-24,93,84,75,77,73,70,100,84,52,30.14,30.05,29.99,10,8,1,20,5,28,0.53,4,Rain-Thunderstorm,116
2013-8-25,88,82,75,76,74,71,94,86,61,30.15,30.10,30.03,10,10,8,15,6,20,0.03,1,Rain,56
2013-8-26,90,82,73,76,74,72,100,90,59,30.12,30.06,30.00,10,8,0,15,5,21,0.72,4,Fog-Rain-Thunderstorm,60
2013-8-27,88,80,72,74,73,71,100,86,59,30.06,30.02,29.99,10,9,1,24,3,32,0.16,2,Rain-Thunderstorm,87
2013-8-28,89,81,73,74,72,69,100,85,55,30.05,30.01,29.98,10,8,0,15,5,20,0.89,4,Fog-Rain,111
2013-8-29,90,82,73,75,72,69,100,78,52,30.04,30.00,29.94,10,10,10,13,4,16,0.00,3,,30
2013-8-30,89,82,75,75,73,69,94,79,59,30.01,29.96,29.91,10,10,4,16,3,20,0.02,1,Rain,42
2013-8-31,90,82,74,75,73,71,94,76,56,29.99,29.95,29.91,10,10,10,15,5,18,0.00,0,,194